Weather History for Charlottesville, VA

Change the Weather History Date:

Saturday, February 2, 2013

  Actual Average Record
Temperature  
Mean Temperature 25 °F 36 °F  
Max Temperature 34 °F 46 °F 73 °F (1989)
Min Temperature 16 °F 26 °F 7 °F (1961)
Degree Days  
Heating Degree Days 40 29  
Month to date heating degree days 79 58  
Since 1 July heating degree days 2363 2718  
Cooling Degree Days 0 0  
Month to date cooling degree days 0 0  
Year to date cooling degree days 0 0  
Moisture  
Dew Point 15 °F    
Average Humidity 66    
Maximum Humidity 96    
Minimum Humidity 35    
Precipitation  
Precipitation T in 0.08 in 0.59 in (2012)
Month to date precipitation T 0.16  
Year to date precipitation 5.05 2.93  
Sea Level Pressure  
Sea Level Pressure 30.18 in    
Wind  
Wind Speed 5 mph (SSW)    
Max Wind Speed 17 mph    
Max Gust Speed 23 mph    
Visibility 8 miles    
Events Snow    
T = Trace of Precipitation, MM = Missing Value Source: NWS Daily Summary

Daily Weather History Graph

Daily Weather History Graph

Search for Another Location

Airport:

Trip Planner

Search our weather history database for the weather conditions in past years. The results will help you decide how hot, cold, wet, or windy it might be!

Date:

Astronomy

Feb. 02, 2013 Rise Set
Actual Time 7:17 AM EST 5:38 PM EST
Civil Twilight 6:49 AM EST 6:05 PM EST
Nautical Twilight 6:18 AM EST 6:37 PM EST
Astronomical Twilight 5:47 AM EST 7:08 PM EST
Moon No Moon Rise 10:33 AM EST
Length of Visible Light 11h 16m
Length of Day
10h 20m
Waning Gibbous, 60% of the Moon is Illuminated
Feb 2
Waning Gibbous
Feb 3
Last Quarter
Feb 10
New
Feb 17
First Quarter
Feb 25
Full

Hourly Weather History & Observations

Time (EST) Temp. Windchill Dew Point Humidity Pressure Visibility Wind Dir Wind Speed Gust Speed Precip Events Conditions
12:53 AM 18.0 °F - 1.9 °F 50% 30.38 in 10.0 mi Calm Calm - N/A   Clear
1:53 AM 17.1 °F 10.0 °F 1.9 °F 52% 30.37 in 10.0 mi SSW 4.6 mph - N/A   Clear
2:53 AM 18.0 °F - 1.9 °F 50% 30.36 in 10.0 mi Calm Calm - N/A   Clear
4:53 AM 18.0 °F 12.7 °F 3.9 °F 54% 30.34 in 10.0 mi South 3.5 mph - N/A   Clear
5:53 AM 19.0 °F 12.3 °F 7.0 °F 59% 30.34 in 10.0 mi SSW 4.6 mph - N/A   Clear
6:53 AM 19.0 °F 13.9 °F 5.0 °F 54% 30.34 in 10.0 mi SSW 3.5 mph - N/A   Clear
7:53 AM 19.0 °F 12.3 °F 6.1 °F 57% 30.34 in 10.0 mi SSW 4.6 mph - N/A   Clear
8:53 AM 21.9 °F 12.5 °F 8.1 °F 55% 30.34 in 10.0 mi South 8.1 mph - N/A   Clear
9:53 AM 24.1 °F 16.0 °F 6.1 °F 46% 30.32 in 10.0 mi South 6.9 mph - N/A   Overcast
10:53 AM 25.0 °F 16.3 °F 8.1 °F 49% 30.30 in 10.0 mi South 8.1 mph - N/A   Overcast
11:53 AM 27.0 °F 19.5 °F 9.0 °F 47% 30.26 in 10.0 mi Variable 6.9 mph - N/A   Overcast
12:53 PM 30.0 °F 21.1 °F 8.1 °F 40% 30.20 in 10.0 mi South 10.4 mph 17.3 mph N/A   Clear
1:53 PM 32.0 °F 24.8 °F 8.1 °F 37% 30.17 in 10.0 mi SSW 8.1 mph - N/A   Overcast
2:53 PM 33.1 °F 23.9 °F 8.1 °F 35% 30.14 in 10.0 mi SSW 12.7 mph - N/A   Overcast
3:53 PM 30.9 °F 23.5 °F 16.0 °F 54% 30.13 in 7.0 mi SW 8.1 mph 23.0 mph N/A   Overcast
3:59 PM 30.2 °F 21.9 °F 17.6 °F 60% 30.10 in 2.5 mi SSW 9.2 mph - 0.00 in Snow Light Snow
4:09 PM 28.4 °F 21.2 °F 19.4 °F 69% 30.10 in 1.5 mi Variable 6.9 mph - 0.00 in Snow Light Snow
4:40 PM 28.4 °F 21.2 °F 23.0 °F 80% 30.08 in 2.5 mi South 6.9 mph - 0.00 in Snow Light Snow
4:53 PM 28.0 °F 21.7 °F 23.0 °F 81% 30.10 in 1.8 mi SSW 5.8 mph - 0.00 in Snow Light Snow
5:26 PM 28.4 °F 20.4 °F 24.8 °F 86% 30.07 in 2.0 mi SSW 8.1 mph - 0.00 in Snow Light Snow
5:35 PM 28.4 °F 20.4 °F 24.8 °F 86% 30.07 in 3.0 mi SSW 8.1 mph - 0.00 in Snow Light Snow
5:53 PM 28.0 °F 20.0 °F 24.1 °F 85% 30.09 in 6.0 mi SSW 8.1 mph - 0.00 in Snow Light Snow
6:11 PM 28.4 °F 20.4 °F 24.8 °F 86% 30.07 in 7.0 mi South 8.1 mph - 0.00 in   Overcast
6:53 PM 28.0 °F 19.3 °F 24.1 °F 85% 30.09 in 10.0 mi South 9.2 mph - 0.00 in   Mostly Cloudy
7:02 PM 26.6 °F 20.0 °F 24.8 °F 93% 30.06 in 10.0 mi South 5.8 mph - N/A   Mostly Cloudy
7:53 PM 26.1 °F 21.9 °F 23.0 °F 88% 30.07 in 10.0 mi SSW 3.5 mph - N/A   Clear
8:53 PM 26.1 °F 20.5 °F 23.0 °F 88% 30.04 in 10.0 mi SSW 4.6 mph - N/A   Clear
9:53 PM 25.0 °F - 21.9 °F 88% 30.03 in 10.0 mi Calm Calm - N/A   Clear
10:53 PM 23.0 °F - 21.0 °F 92% 30.02 in 7.0 mi Calm Calm - N/A   Clear
11:53 PM 24.1 °F - 21.0 °F 88% 30.00 in 7.0 mi Calm Calm - N/A   Partly Cloudy